• Join FlightAware (Why Join?)
  • Login
  • US Flag 
12:43AM EDT


 

Airport Tracker/Info


-or-


 

Live Flight TrackerFlight Track Log ✈ WIG7406 ✈ 25-Jun-2014 ✈ KBGR - KPWM

Flight Track Log - Related Links

Times and Time Zones

All times are in EDT time to prevent confusion due to time zone crossing. See the WIG7406 flight status page for this flight to view local times or setup timezone preferences in your user account.

Time Position Orientation Groundspeed Altitude Reporting Facility
EDT Latitude Longitude Course Direction KTS MPH feet Rate Location/Type
07:22PM 44.7817 -68.9219 222° Southwest 123 142 2,600  Level Boston Center
07:23PM 44.7572 -68.9556 224° Southwest 123 142 3,400 660 Climbing Boston Center
07:24PM 44.7311 -68.9856 219° Southwest 123 142 4,000 240 Climbing Boston Center
07:25PM 44.7028 -69.0214 222° Southwest 130 150 4,000  Level Boston Center
07:26PM 44.6269 -69.0537 222° Southwest  Level FlightAware Approximate
07:26PM 44.6728 -69.0592 222° Southwest 141 162 4,000  Level Boston Center
07:27PM 44.5968 -69.0912 222° Southwest  Level FlightAware Approximate
07:27PM 44.6367 -69.1036 221° Southwest 141 162 4,000  Level Boston Center
07:28PM 44.6075 -69.1422 223° Southwest 141 162 4,000  Level Boston Center
07:29PM 44.5772 -69.1794 221° Southwest 141 162 4,000  Level Boston Center
07:30PM 44.5478 -69.2161 222° Southwest 142 163 4,000  Level Boston Center
07:31PM 44.5172 -69.2528 221° Southwest 142 163 4,000  Level Boston Center
07:32PM 44.4883 -69.2906 223° Southwest 142 163 4,000  Level Boston Center
07:33PM 44.4583 -69.3264 220° Southwest 142 163 4,000  Level Boston Center
07:34PM 44.4300 -69.3619 222° Southwest 141 162 4,000  Level Boston Center
07:35PM 44.4031 -69.4031 227° Southwest 141 162 4,000  Level Boston Center
07:36PM 44.3781 -69.4428 229° Southwest 140 161 4,000  Level Boston Center
07:37PM 44.3519 -69.4825 227° Southwest 139 160 4,000  Level Boston Center
07:38PM 44.3256 -69.5242 228° Southwest 139 160 4,000  Level Boston Center
07:39PM 44.2950 -69.5714 228° Southwest 139 160 4,000  Level Boston Center
07:41PM 44.2481 -69.6450 228° Southwest 141 162 4,000  Level Boston Center
07:42PM 44.2206 -69.6861 227° Southwest 141 162 4,000  Level Boston Center
07:43PM 44.1944 -69.7275 229° Southwest 142 163 4,000  Level Boston Center
07:44PM 44.1653 -69.7708 227° Southwest 142 163 4,000  Level Boston Center
07:45PM 44.1389 -69.8119 228° Southwest 142 163 4,000  Level Boston Center
07:46PM 44.1125 -69.8528 228° Southwest 142 163 4,000  Level Boston Center
07:47PM 44.0842 -69.8958 228° Southwest 142 163 4,000  Level Boston Center
07:48PM 44.0575 -69.9364 228° Southwest 142 163 4,000  Level Boston Center
07:49PM 44.0311 -69.9775 228° Southwest 142 163 4,000  Level Boston Center
07:50PM 44.0019 -70.0214 227° Southwest 142 163 4,000  Level Boston Center
07:51PM 43.9750 -70.0622 227° Southwest 142 163 4,000  Level Boston Center
07:52PM 43.9486 -70.1025 228° Southwest 143 165 4,000  Level Boston Center
07:53PM 43.9200 -70.1458 227° Southwest 142 163 4,000  Level Boston Center
07:54PM 43.8942 -70.1853 228° Southwest 142 163 4,000  Level Boston Center
07:55PM 43.8681 -70.2250 228° Southwest 142 163 4,000  Level Boston Center
07:56PM 43.8403 -70.2681 228° Southwest 141 162 4,000  Level Boston Center
07:57PM 43.8250 -70.3217 248° West 149 171 4,000 -300 Level Boston Center
07:58PM 43.8089 -70.3822 250° West 152 175 3,500 -540 Descending Boston Center
07:59PM 43.7844 -70.4322 236° Southwest 158 182 3,000 -540 Descending Boston Center
08:00PM 43.7536 -70.4772 227° Southwest 161 185 2,500 -540 Descending Boston Center
08:01PM 43.7197 -70.5272 227° Southwest 162 186 1,900 -360 Descending Boston Center
08:02PM 43.6764 -70.5386 191° South 160 184 1,800 -60 Descending Boston Center
08:03PM 43.6553 -70.4903 121° Southeast 149 171 1,800 -120 Level Boston Center
08:04PM 43.6525 -70.4289 94° East 148 170 1,600 -540 Descending Boston Center
08:05PM 43.6486 -70.3700 102° East 151 174 800 -720 Descending Boston Center
08:06PM 43.6442 -70.3733 102° East  Level FlightAware Approximate
08:07PM 43.6450 -70.3192 96° East 149 171 200  Level Boston Center